Home   Weather   Hamilton   Past weeks

Flag for Canada Past Weather in Hamilton, Ontario, Canada — Yesterday and Last 2 Weeks

Now
37 °F

Fog.


Feels Like: 37 °F
Forecast: 38 / 46 °F
Wind: 2 mph from North

Location: Hamilton Airport

Current Time: Jan 21, 2017 at 8:32:12 am

Latest Report: Jan 21, 2017 at 7:37 am


Visibility: 0 mi

Pressure: 29.80 "Hg

Humidity: 93%

Dew Point: 36 °F

Location of HamiltonLocation

Past Weather in Hamilton — Graph

°F

Hamilton Temperature Yesterday

Maximum temperature yesterday: 37 °F (at 9:00 pm)
Minimum temperature yesterday: 30 °F (at 12:00 am)
Average temperature yesterday: 34 °F

High & Low Weather Summary for the Past Weeks

 TemperatureHumidityPressure
High54 °F (Jan 12, 4:00 am)100% (Jan 10, 1:30 pm)30.79 "Hg (Jan 10, 1:30 pm)
Low3 °F (Jan 7, 3:00 am)48% (Jan 8, 1:00 pm)29.49 "Hg (Jan 11, 12:00 am)
Average27 °F84%30.16 "Hg
* Reported Jan 6 7:00 am — Jan 21 7:37 am, Hamilton, Weather by CustomWeather, © 2017

Note: Actual official high and low records may vary slightly from our data, if they occured in-between our weather recording intervals... More about our weather records

Advertising

Hamilton Weather History for the Previous 24 Hours

Scroll right to see more
 ConditionsComfort  
Time TempWeatherWind HumidityBarometerVisibility
7:37 am
Sat, Jan 21
37 °FFog.2 mph93%29.80 "Hg1 mi
6:16 am37 °FFog.6 mph100%29.81 "Hg1 mi
5:00 am37 °FFog.6 mph100%29.80 "Hg1 mi
4:00 am37 °FFog.8 mph100%29.81 "Hg1 mi
3:20 am37 °FFog.6 mph100%29.82 "Hg1 mi
2:00 am37 °FFog.7 mph100%29.81 "Hg1 mi
1:24 am37 °FFog.7 mph100%29.80 "Hg2 mi
1:00 am37 °FFog.8 mph100%29.79 "Hg5 mi
12:33 am37 °FFog.7 mph93%29.79 "Hg5 mi
12:05 am36 °FFog.8 mph100%29.79 "Hg1 mi
11:22 pm
Fri, Jan 20
36 °FFog.7 mph100%29.78 "Hg1 mi
11:00 pm36 °FFog.6 mph100%29.78 "Hg0 mi
10:00 pm36 °FFog.2 mph100%29.77 "Hg0 mi
9:00 pm37 °FDrizzle. Fog.2 mph93%29.77 "Hg0 mi
8:21 pm36 °FDrizzle. Fog.5 mph100%29.75 "Hg0 mi
7:00 pm36 °FDrizzle. Fog.7 mph100%29.75 "Hg2 mi
6:36 pm36 °FDrizzle. Fog.6 mph100%29.75 "Hg2 mi
5:00 pm36 °FLight rain. Fog.7 mph100%29.73 "Hg2 mi
4:00 pm36 °FLight rain. Fog.10 mph100%29.73 "Hg2 mi
3:10 pm36 °FLight rain. Fog.10 mph100%29.73 "Hg2 mi
3:00 pm36 °FLight rain. Fog.12 mph100%29.73 "Hg2 mi
2:00 pm36 °FLight rain. Fog.8 mph100%29.72 "Hg2 mi
1:00 pm36 °FLight rain. Fog.14 mph100%29.73 "Hg2 mi
12:00 pm36 °FLight rain. Fog.13 mph100%29.78 "Hg2 mi
11:00 am36 °FFog.12 mph93%29.80 "Hg2 mi
10:00 am34 °FFog.16 mph100%29.81 "Hg4 mi
9:00 am34 °FFog.14 mph100%29.80 "Hg2 mi
8:34 am34 °FFog.14 mph100%29.81 "Hg1 mi
8:06 am34 °FFog.12 mph100%29.81 "Hg1 mi
Weather by CustomWeather, © 2017

See weather overviewHow to use our weather pages